• In United Kingdom
  • List of Countries
  • For 7 days
  • Water Temperature
  • Satellite Maps
  • Weather Map
  • Weather Widgets
  • user-avatar
    Login

    Hourly Weather Sumgayit

    Today, 24 August, Thursday

    Time Temperature Precipitation Wind Pressure Humidity
    00:00 +29°C° 0 mm 3 mps 737 mmHg 27%
    01:00 +29°C° 0 mm 4 mps 738 mmHg 30%
    02:00 +29°C° 0 mm 4 mps 738 mmHg 32%
    03:00 +28°C° 0 mm 8 mps 739 mmHg 37%
    04:00 +28°C° 0 mm 8 mps 739 mmHg 39%
    05:00 +27°C° 0 mm 8 mps 739 mmHg 42%
    06:00 +27°C° 0 mm 9 mps 740 mmHg 44%
    07:00 +28°C° 0 mm 9 mps 740 mmHg 42%
    08:00 +31°C° 0 mm 8 mps 740 mmHg 40%
    09:00 +32°C° 0 mm 8 mps 740 mmHg 38%
    10:00 +32°C° 0 mm 8 mps 740 mmHg 37%
    11:00 +33°C° 0 mm 8 mps 740 mmHg 36%
    12:00 +34°C° 0 mm 7 mps 740 mmHg 35%
    13:00 +34°C° 0 mm 7 mps 740 mmHg 33%
    14:00 +34°C° 0 mm 7 mps 740 mmHg 32%
    15:00 +34°C° 0 mm 6 mps 740 mmHg 31%
    16:00 +33°C° 0 mm 6 mps 740 mmHg 31%
    17:00 +32°C° 0 mm 5 mps 739 mmHg 30%
    18:00 +32°C° 0 mm 5 mps 739 mmHg 30%
    19:00 +30°C° 0 mm 5 mps 740 mmHg 31%
    20:00 +29°C° 0 mm 5 mps 740 mmHg 32%
    21:00 +29°C° 0 mm 4 mps 740 mmHg 33%
    22:00 +28°C° 0 mm 4 mps 740 mmHg 34%
    23:00 +28°C° 0 mm 5 mps 740 mmHg 35%

    Tomorrow, 25 August, Friday

    Time Temperature Precipitation Wind Pressure Humidity
    00:00 +27°C° 0 mm 5 mps 740 mmHg 36%
    01:00 +27°C° 0 mm 5 mps 740 mmHg 36%
    02:00 +27°C° 0 mm 5 mps 740 mmHg 37%
    03:00 +27°C° 0 mm 5 mps 740 mmHg 37%
    04:00 +27°C° 0 mm 5 mps 740 mmHg 37%
    05:00 +27°C° 0 mm 5 mps 740 mmHg 37%
    06:00 +27°C° 0 mm 5 mps 740 mmHg 37%
    07:00 +28°C° 0 mm 6 mps 740 mmHg 33%
    08:00 +30°C° 0 mm 6 mps 741 mmHg 29%
    09:00 +32°C° 0 mm 6 mps 741 mmHg 25%
    10:00 +33°C° 0 mm 7 mps 741 mmHg 25%
    11:00 +34°C° 0 mm 7 mps 741 mmHg 24%
    12:00 +35°C° 0 mm 8 mps 741 mmHg 24%
    13:00 +35°C° 0 mm 8 mps 740 mmHg 25%
    14:00 +34°C° 0 mm 8 mps 740 mmHg 27%
    15:00 +34°C° 0 mm 9 mps 740 mmHg 29%
    16:00 +33°C° 0 mm 8 mps 740 mmHg 32%
    17:00 +32°C° 0 mm 8 mps 740 mmHg 35%
    18:00 +31°C° 0 mm 8 mps 740 mmHg 39%
    19:00 +31°C° 0 mm 8 mps 740 mmHg 40%
    20:00 +29°C° 0 mm 7 mps 740 mmHg 41%
    21:00 +28°C° 0 mm 7 mps 740 mmHg 43%
    22:00 +28°C° 0 mm 7 mps 740 mmHg 42%
    23:00 +28°C° 0 mm 6 mps 740 mmHg 42%

    Day after tomorrow, 26 August, Saturday

    Time Temperature Precipitation Wind Pressure Humidity
    00:00 +28°C° 0 mm 6 mps 740 mmHg 41%
    01:00 +27°C° 0 mm 6 mps 740 mmHg 42%
    02:00 +27°C° 0 mm 6 mps 740 mmHg 43%
    03:00 +27°C° 0 mm 6 mps 740 mmHg 44%
    04:00 +27°C° 0 mm 6 mps 740 mmHg 46%
    05:00 +27°C° 0 mm 6 mps 740 mmHg 47%
    06:00 +26°C° 0 mm 6 mps 740 mmHg 49%
    07:00 +28°C° 0 mm 6 mps 740 mmHg 44%
    08:00 +29°C° 0 mm 7 mps 741 mmHg 40%
    09:00 +32°C° 0 mm 8 mps 741 mmHg 36%
    10:00 +32°C° 0 mm 8 mps 741 mmHg 34%
    11:00 +33°C° 0 mm 8 mps 740 mmHg 33%
    12:00 +34°C° 0 mm 9 mps 740 mmHg 32%
    13:00 +34°C° 0 mm 9 mps 740 mmHg 33%
    14:00 +33°C° 0 mm 9 mps 740 mmHg 35%
    15:00 +33°C° 0 mm 10 mps 739 mmHg 37%
    16:00 +32°C° 0 mm 10 mps 739 mmHg 41%
    17:00 +31°C° 0 mm 10 mps 739 mmHg 45%
    18:00 +29°C° 0 mm 10 mps 739 mmHg 50%
    19:00 +29°C° 0 mm 10 mps 739 mmHg 51%
    20:00 +28°C° 0 mm 10 mps 740 mmHg 53%
    21:00 +28°C° 0 mm 10 mps 740 mmHg 55%
    22:00 +27°C° 0 mm 9 mps 740 mmHg 54%
    23:00 +27°C° 0 mm 9 mps 739 mmHg 53%

    27 August, Sunday

    Time Temperature Precipitation Wind Pressure Humidity
    00:00 +27°C° 0 mm 8 mps 739 mmHg 52%
    01:00 +26°C° 0 mm 8 mps 739 mmHg 54%
    02:00 +26°C° 0 mm 7 mps 739 mmHg 55%
    03:00 +26°C° 0 mm 7 mps 739 mmHg 56%
    04:00 +26°C° 0 mm 7 mps 739 mmHg 55%
    05:00 +26°C° 0 mm 7 mps 739 mmHg 55%
    06:00 +24°C° 0 mm 7 mps 739 mmHg 55%
    07:00 +27°C° 0 mm 7 mps 739 mmHg 49%
    08:00 +28°C° 0 mm 7 mps 740 mmHg 43%
    09:00 +31°C° 0 mm 8 mps 740 mmHg 38%
    10:00 +31°C° 0 mm 8 mps 740 mmHg 37%
    11:00 +32°C° 0 mm 8 mps 739 mmHg 36%
    12:00 +33°C° 0 mm 8 mps 739 mmHg 35%
    13:00 +33°C° 0 mm 8 mps 739 mmHg 36%
    14:00 +33°C° 0 mm 8 mps 739 mmHg 37%
    15:00 +33°C° 0 mm 8 mps 738 mmHg 38%
    16:00 +32°C° 0 mm 8 mps 738 mmHg 41%
    17:00 +31°C° 0 mm 8 mps 738 mmHg 44%
    18:00 +29°C° 0 mm 8 mps 738 mmHg 46%
    19:00 +29°C° 0 mm 8 mps 738 mmHg 48%
    20:00 +28°C° 0 mm 7 mps 739 mmHg 50%
    21:00 +28°C° 0 mm 7 mps 739 mmHg 52%
    22:00 +27°C° 0 mm 7 mps 739 mmHg 52%
    23:00 +27°C° 0 mm 7 mps 739 mmHg 53%

    28 August, Monday

    Time Temperature Precipitation Wind Pressure Humidity
    00:00 +27°C° 0 mm 6 mps 739 mmHg 54%
    01:00 +26°C° 0 mm 6 mps 738 mmHg 54%
    02:00 +26°C° 0 mm 6 mps 738 mmHg 54%
    03:00 +26°C° 0 mm 6 mps 738 mmHg 55%
    04:00 +26°C° 0 mm 6 mps 738 mmHg 53%
    05:00 +26°C° 0 mm 6 mps 738 mmHg 52%
    06:00 +26°C° 0 mm 5 mps 739 mmHg 51%
    07:00 +27°C° 0 mm 6 mps 739 mmHg 46%
    08:00 +29°C° 0 mm 6 mps 739 mmHg 41%
    09:00 +30°C° 0 mm 6 mps 739 mmHg 36%
    10:00 +32°C° 0 mm 6 mps 739 mmHg 34%
    11:00 +33°C° 0 mm 6 mps 738 mmHg 33%
    12:00 +33°C° 0 mm 6 mps 738 mmHg 31%
    13:00 +33°C° 0 mm 6 mps 738 mmHg 31%
    14:00 +33°C° 0 mm 6 mps 737 mmHg 32%
    15:00 +33°C° 0 mm 6 mps 737 mmHg 32%
    16:00 +33°C° 0 mm 6 mps 737 mmHg 34%
    17:00 +32°C° 0 mm 6 mps 737 mmHg 35%
    18:00 +30°C° 0 mm 5 mps 737 mmHg 37%
    19:00 +29°C° 0 mm 5 mps 737 mmHg 38%
    20:00 +29°C° 0 mm 5 mps 737 mmHg 39%
    21:00 +28°C° 0 mm 4 mps 738 mmHg 40%
    22:00 +28°C° 0 mm 4 mps 737 mmHg 41%
    23:00 +28°C° 0 mm 3 mps 737 mmHg 41%

    29 August, Tuesday

    Time Temperature Precipitation Wind Pressure Humidity
    00:00 +27°C° 0 mm 3 mps 737 mmHg 41%
    01:00 +27°C° 0 mm 3 mps 737 mmHg 41%
    02:00 +26°C° 0 mm 2 mps 737 mmHg 41%
    03:00 +26°C° 0 mm 2 mps 736 mmHg 41%
    04:00 +26°C° 0 mm 2 mps 736 mmHg 41%
    05:00 +26°C° 0 mm 2 mps 737 mmHg 40%
    06:00 +26°C° 0 mm 1 mps 737 mmHg 39%
    07:00 +28°C° 0 mm 1 mps 737 mmHg 37%
    08:00 +29°C° 0 mm 1 mps 737 mmHg 34%
    09:00 +31°C° 0 mm 1 mps 737 mmHg 31%
    10:00 +32°C° 0 mm 2 mps 736 mmHg 30%
    11:00 +34°C° 0 mm 3 mps 736 mmHg 28%
    12:00 +35°C° 0 mm 3 mps 735 mmHg 27%
    13:00 +35°C° 0 mm 4 mps 735 mmHg 27%
    14:00 +35°C° 0 mm 4 mps 735 mmHg 28%
    15:00 +36°C° 0 mm 5 mps 734 mmHg 28%
    16:00 +35°C° 0 mm 5 mps 734 mmHg 33%
    17:00 +33°C° 0 mm 5 mps 734 mmHg 37%
    18:00 +32°C° 0 mm 5 mps 734 mmHg 42%
    19:00 +30°C° 0 mm 4 mps 734 mmHg 47%
    20:00 +30°C° 0 mm 4 mps 734 mmHg 52%
    21:00 +29°C° 0 mm 3 mps 734 mmHg 58%
    22:00 +28°C° 0 mm 3 mps 734 mmHg 60%
    23:00 +28°C° 0 mm 3 mps 733 mmHg 62%
    Show more